Tracking 31011 objects as of 13-Jul-2025
HD Live streaming from Space Station
objects crossing your sky now

GLOBALSTAR M062

Track GLOBALSTAR M062 now!
10-day predictions
GLOBALSTAR M062 is classified as:


NORAD ID: 26082
Int'l Code: 2000-008B
Perigee: 1,493.2 km
Apogee: 1,504.9 km
Inclination: 52.0 °
Period: 115.8 minutes
Semi major axis: 7870 km
RCS: 2.6606 m2 (large)
Launch date: February 8, 2000
Source: Globalstar (GLOB)
Launch site: AIR FORCE EASTERN TEST RANGE (AFETR)
Your satellite tracking list
Your tracking list is empty




NASA's NSSDC Master Catalog

Two Line Element Set (TLE):
1 26082U 00008B   25193.51341911 -.00000201  00000-0 -73803-3 0  9990
2 26082  51.9869  21.3057 0007403 159.1442 218.6255 12.43469358499776
Source of the keplerian elements: AFSPC